Location: Newark
(47.5989°N, 4.6950°E)
Time: 15:31:12
(UTC+00:00)

Envisat - Pass Details

Date: 21 November 2019
Orbit: 764 x 766 km, 98.1° (Epoch: 11 December)

Event Time Altitude Azimuth Distance (km) Brightness Sun altitude
Rises 17:41:28 0° 169° (S) 3,220 6.2 -17.0°
Reaches altitude 10° 17:43:46 10° 171° (S) 2,298 5.5 -17.3°
Maximum altitude 17:48:50 75° 257° (WSW) 799 3.2 -18.2°
Drops below altitude 10° 17:53:56 10° 343° (NNW) 2,314 5.6 -19.0°
Sets 17:56:16 0° 345° (NNW) 3,244 6.3 -19.4°
